[[{"header":{"parameterUnit":"m.s-1","parameterCategory":1,"la1":30.2991,"la2":30.254,"lo1":-89.0895,"lo2":-89.0444,"dy":0.0017,"dx":0.0017,"nx":28,"ny":28,"refTime":"2023-10-11T21:00:00:Z","depth":0,"parameterNumber":2,"parameterNumberName":"U-component_of_WINDS"},"data":[0,0,0,0,0,0,0,0,0,0,0,0,0,0,0,0,0,0,0,0,0,0,0,0,0,0,0,0,0,0,0,0,0,0,0,0,0,0,0,0,0,0,0,0,0,0,0,0,0,0,0,0,0,0,0,0,0,0,-6.1959,-6.1958,0,-6.1892,-6.1891,-6.1891,-6.1621,-6.1614,-6.1608,-6.1602,-6.1541,-6.1545,-6.1549,0,0,0,0,0,0,0,0,0,0,0,0,0,-6.186,-6.1863,-6.1959,-6.1958,-6.1957,-6.1892,-6.1891,-6.189,-6.1622,-6.1614,-6.1607,-6.1599,-6.1539,-6.1544,-6.1549,0,0,0,0,0,0,0,0,0,0,0,0,0,-6.186,-6.1865,-6.1959,-6.1815,-6.1802,-6.1892,-6.1891,-6.189,-6.1623,-6.1614,-6.1605,-6.1596,-6.1538,-6.1544,-6.155,-6.1776,0,0,-6.1569,-6.1572,0,0,0,0,0,0,0,0,-6.186,-6.1864,-6.1837,-6.1825,-6.181,-6.1755,-6.1833,-6.1852,-6.1626,-6.1691,-6.1602,-6.1591,-6.162,-6.1619,-6.1627,-6.1773,-6.1771,-6.157,-6.1573,-6.1576,-6.1578,0,0,0,0,0,0,0,-6.186,-6.1865,-6.1932,-6.1837,-6.1821,-6.1756,-6.1746,-6.1836,-6.1709,-6.1685,-6.1665,-6.1661,-6.1611,-6.1622,-6.1624,-6.177,-6.1569,-6.1575,-6.1579,-6.1581,-6.2102,-6.2111,0,0,0,0,0,0,-6.188,-6.1867,-6.1935,-6.193,-6.1812,-6.1766,-6.1754,-6.1782,-6.1707,-6.1687,-6.1669,-6.1648,-6.1616,-6.1617,-6.1621,-6.1883,-6.1576,-6.1582,-6.1585,-6.2092,-6.2104,-6.2115,0,0,0,0,0,0,-6.1879,-6.1889,-6.1937,-6.1893,-6.1894,-6.1777,-6.1811,-6.1786,-6.1796,-6.1695,-6.1672,-6.1703,-6.1608,-6.1612,-6.174,-6.1877,-6.1585,-6.159,-6.208,-6.2096,-6.211,-6.241,0,0,0,0,0,0,-6.1877,-6.189,-6.1973,-6.1897,-6.1898,-6.2057,-6.182,-6.1791,-6.1807,-6.178,-6.1721,-6.1702,-6.1601,-6.1732,-6.1746,-6.1881,-6.1595,-6.2067,-6.2087,-6.2105,-6.2388,-6.2434,-6.2473,0,0,0,0,0,-6.1875,-6.2061,-6.1979,-6.1988,-6.1999,-6.2065,-6.2066,-6.1944,-6.1819,-6.1903,-6.1839,-6.1704,-6.1859,-6.1747,-6.1761,-6.19,-6.2058,-6.2081,-6.2103,-6.2368,-6.2425,-6.2472,0,0,0,0,0,0,-6.2158,-6.2048,-6.1956,-6.2123,-6.2105,-6.2019,-6.2121,-6.2007,-6.2026,-6.2,-6.1849,-6.1839,-6.199,-6.1956,-6.1834,-6.2117,-6.1936,-6.1963,-6.2133,-6.2186,-6.2228,-6.2235,-6.1601,0,0,0,0,0,-6.2239,-6.23,-6.2201,-6.2359,-6.2354,-6.2241,-6.2264,-6.2172,-6.2149,-6.214,-6.2084,-6.2069,-6.2114,-6.2147,-6.2183,-6.238,-6.2366,-6.2483,-6.2526,-6.2561,-6.2587,-6.2693,-6.2745,-6.2189,-6.2189,-6.2189,0,0,-6.2409,-6.2357,-6.2405,-6.2414,-6.239,-6.2459,-6.2236,-6.2317,-6.2368,-6.2153,-6.2271,-6.2231,-6.2203,-6.2368,-6.2438,-6.2345,-6.2737,-6.259,-6.2619,-6.2626,-6.2722,-6.2775,-6.2822,-6.2205,-6.2202,-6.2199,0,0,-6.2755,-6.272,-6.2848,-6.2828,-6.2793,-6.2716,-6.2748,-6.2679,-6.2644,-6.2759,-6.26,-6.2659,-6.2739,-6.2727,-6.2732,-6.3075,-6.2954,-6.3091,-6.3317,-6.3422,-6.3465,-6.3504,-6.363,-6.3677,-6.3116,-6.3117,-6.3118,0,-6.2971,-6.3066,-6.2929,-6.3022,-6.3033,-6.2839,-6.297,-6.2957,-6.2938,-6.2951,-6.2846,-6.2945,-6.2912,-6.3074,-6.3158,-6.3166,-6.3201,-6.3099,-6.347,-6.3507,-6.354,-6.366,-6.3707,-6.3134,-6.3132,-6.3131,-6.3129,0,-6.3336,-6.3405,-6.3513,-6.3498,-6.352,-6.3632,-6.3514,-6.3554,-6.346,-6.3395,-6.3518,-6.3472,-6.3497,-6.3527,-6.3436,-6.3677,-6.3621,-6.3496,-6.3312,-6.3613,-6.3723,-6.3767,-6.3159,-6.3153,-6.3148,-6.3143,0,0,-6.386,-6.3767,-6.381,-6.3802,-6.375,-6.3802,-6.3906,-6.3928,-6.3967,-6.396,-6.4046,-6.4119,-6.4003,-6.4009,-6.3915,-6.4007,-6.4287,-6.3869,-6.3867,-6.3953,-6.4555,-6.4653,-6.4708,-6.4204,-6.4212,-6.4219,-6.4558,0,-6.4192,-6.4363,-6.4244,-6.4436,-6.4501,-6.4318,-6.4409,-6.4389,-6.4332,-6.438,-6.4316,-6.4372,-6.4212,-6.4215,-6.4297,-6.4236,-6.4407,-6.4209,-6.4288,-6.4292,-6.4305,-6.4764,-6.4867,-6.519,-6.46,-6.4607,-6.4612,0,-6.4603,-6.4614,-6.4814,-6.4751,-6.4773,-6.4857,-6.487,-6.4916,-6.4891,-6.4843,-6.4851,-6.4733,-6.4834,-6.4651,-6.4791,-6.4659,-6.4684,-6.4659,-6.4668,-6.4675,-6.4474,-6.4787,-6.5289,-6.534,-6.4677,-6.4672,-6.4667,0,-6.4971,-6.5035,-6.5163,-6.5161,-6.509,-6.5154,-6.5128,-6.5092,-6.5115,-6.5126,-6.514,-6.5164,-6.5179,-6.5201,-6.5095,-6.4971,-6.5251,-6.5058,-6.5217,-6.5221,-6.5288,-6.5286,-6.5806,-6.5297,-6.5297,-6.5296,-6.5295,0,-6.5357,-6.5488,-6.5327,-6.5407,-6.5549,-6.541,-6.5555,-6.5509,-6.548,-6.555,-6.5392,-6.5462,-6.5315,-6.5371,-6.5288,-6.5419,-6.5426,-6.5393,-6.537,-6.541,-6.5415,-6.5427,-6.5404,-6.5308,-6.5306,-6.5303,-6.5301,0,-6.5793,-6.569,-6.5819,-6.5741,-6.5725,-6.5833,-6.5767,-6.584,-6.5771,-6.5862,-6.5875,-6.5769,-6.5826,-6.5721,-6.5765,-6.571,-6.5895,-6.5835,-6.5904,-6.5888,-6.6055,-6.6043,-6.6605,-6.6674,-6.6118,-6.6123,-6.6128,0,-6.6049,-6.6145,-6.6077,-6.6112,-6.6094,-6.6152,-6.6174,-6.6041,-6.6071,-6.6051,-6.6127,-6.617,-6.6198,-6.6299,-6.6228,-6.6262,-6.6204,-6.6399,-6.6209,-6.6246,-6.6213,-6.6211,-6.6222,-6.644,-6.6447,-6.6452,-6.6456,0,-6.6515,-6.6459,-6.6495,-6.6516,-6.6547,-6.6556,-6.6555,-6.6593,-6.6453,-6.6495,-6.6551,-6.6573,-6.6618,-6.6665,-6.6682,-6.6657,-6.6537,-6.6516,-6.6556,-6.6599,-6.6637,-6.6624,-6.6016,-6.6505,-6.65,-6.6497,-6.6494,-6.6492,-6.687,-6.6949,-6.6914,-6.6961,-6.6946,-6.6949,-6.7014,-6.6953,-6.6997,-6.7022,-6.6941,-6.7018,-6.6992,-6.7002,-6.699,-6.705,-6.6964,-6.702,-6.7035,-6.7052,-6.7081,-6.6624,-6.7052,-6.705,-6.7049,-6.7048,-6.7046,0,-6.7332,-6.7301,-6.7345,-6.7348,-6.7387,-6.7265,-6.7258,-6.73,-6.7368,-6.7352,-6.7383,-6.745,-6.7495,-6.7428,-6.7462,-6.7523,-6.7469,-6.7538,-6.7534,-6.7532,-6.7154,-6.7118,-6.7581,-6.7581,-6.7581,-6.7581,-6.7581,-6.7581,-6.7577,-6.7704,-6.7646,-6.7765,-6.7732,-6.7804,-6.7811,-6.7815,-6.7802,-6.7883,-6.792,-6.7874,-6.784,-6.787,-6.7908,-6.7887,-6.791,-6.7999,-6.796,-6.7609,-6.7557,-6.7508,-6.7474,-6.8004,-6.8004,-6.8332,-6.8335,-6.8338]},{"header":{"parameterUnit":"m.s-1","parameterCategory":1,"la1":30.2991,"la2":30.254,"lo1":-89.0895,"lo2":-89.0444,"dy":0.0017,"dx":0.0017,"nx":28,"ny":28,"refTime":"2023-10-11T21:00:00:Z","depth":0,"parameterNumber":3,"parameterNumberName":"V-component_of_WINDS"},"data":[0,0,0,0,0,0,0,0,0,0,0,0,0,0,0,0,0,0,0,0,0,0,0,0,0,0,0,0,0,0,0,0,0,0,0,0,0,0,0,0,0,0,0,0,0,0,0,0,0,0,0,0,0,0,0,0,0,0,-6.9544,-6.9543,0,-6.9498,-6.9498,-6.9497,-6.9281,-6.9276,-6.9271,-6.9266,-6.9223,-6.9227,-6.923,0,0,0,0,0,0,0,0,0,0,0,0,0,-6.9444,-6.9447,-6.9544,-6.9543,-6.9543,-6.9498,-6.9498,-6.9497,-6.9282,-6.9275,-6.9269,-6.9263,-6.9222,-6.9226,-6.923,0,0,0,0,0,0,0,0,0,0,0,0,0,-6.9452,-6.9448,-6.9544,-6.943,-6.9419,-6.9498,-6.9498,-6.9497,-6.9283,-6.9275,-6.9268,-6.926,-6.922,-6.9226,-6.9231,-6.9418,0,0,-6.9248,-6.925,0,0,0,0,0,0,0,0,-6.9452,-6.9456,-6.9447,-6.9438,-6.9426,-6.9387,-6.9447,-6.9471,-6.9285,-6.9335,-6.9266,-6.9257,-6.9284,-6.9284,-6.9292,-6.9416,-6.9414,-6.9248,-6.9252,-6.9254,-6.9255,0,0,0,0,0,0,0,-6.9452,-6.9457,-6.9526,-6.9447,-6.9434,-6.9381,-6.9373,-6.945,-6.9353,-6.933,-6.9314,-6.9311,-6.9277,-6.9288,-6.929,-6.9414,-6.9248,-6.9253,-6.9256,-6.9258,-6.9684,-6.9691,0,0,0,0,0,0,-6.9467,-6.9458,-6.9527,-6.9524,-6.942,-6.9389,-6.9381,-6.9408,-6.9352,-6.9336,-6.9318,-6.9301,-6.9282,-6.9284,-6.9287,-6.9499,-6.9254,-6.9259,-6.9262,-6.9676,-6.9685,-6.9694,0,0,0,0,0,0,-6.9466,-6.9475,-6.9529,-6.9487,-6.9489,-6.9399,-6.9431,-6.9411,-6.9421,-6.9343,-6.9324,-6.9347,-6.9276,-6.928,-6.9386,-6.9495,-6.9261,-6.9266,-6.9666,-6.9679,-6.969,-6.9928,0,0,0,0,0,0,-6.9464,-6.9476,-6.9547,-6.949,-6.9493,-6.9629,-6.9437,-6.9415,-6.943,-6.9408,-6.9365,-6.935,-6.927,-6.9379,-6.9391,-6.9498,-6.9271,-6.9656,-6.9672,-6.9686,-6.991,-6.9947,-6.9978,0,0,0,0,0,-6.9461,-6.9618,-6.9552,-6.9561,-6.9579,-6.9636,-6.9637,-6.9541,-6.944,-6.951,-6.9459,-6.9352,-6.9481,-6.9392,-6.9404,-6.9514,-6.9649,-6.9667,-6.9685,-6.9895,-6.994,-6.9977,0,0,0,0,0,0,-6.9693,-6.9608,-6.9534,-6.9677,-6.9665,-6.9599,-6.9685,-6.9592,-6.961,-6.9589,-6.947,-6.9462,-6.9585,-6.956,-6.9462,-6.969,-6.9546,-6.9568,-6.9702,-6.9744,-6.9777,-6.9781,-6.9275,0,0,0,0,0,-6.976,-6.9813,-6.9736,-6.987,-6.9867,-6.9778,-6.9799,-6.9725,-6.9708,-6.9703,-6.966,-6.9649,-6.9685,-6.9713,-6.9744,-6.9905,-6.9891,-6.9986,-7.0021,-7.0049,-7.0069,-7.0149,-7.019,-6.9753,-6.9753,-6.9753,0,0,-6.99,-6.9861,-6.9902,-6.9915,-6.9897,-6.9954,-6.9775,-6.9844,-6.9884,-6.9714,-6.981,-6.9778,-6.9757,-6.9891,-6.9948,-6.9874,-7.0186,-7.0072,-7.0095,-7.01,-7.0172,-7.0213,-7.025,-6.9766,-6.9763,-6.9762,0,0,-7.0185,-7.0161,-7.0267,-7.0252,-7.0225,-7.0164,-7.019,-7.0137,-7.0108,-7.0202,-7.0074,-7.0121,-7.0189,-7.0178,-7.0182,-7.0457,-7.0359,-7.0471,-7.0649,-7.0728,-7.0763,-7.0792,-7.0889,-7.0925,-7.0491,-7.0491,-7.0492,0,-7.0363,-7.0443,-7.0334,-7.041,-7.0418,-7.0263,-7.0369,-7.0359,-7.0346,-7.0355,-7.0272,-7.0351,-7.0327,-7.0454,-7.0521,-7.053,-7.0554,-7.0475,-7.0766,-7.0795,-7.0821,-7.0912,-7.0949,-7.0505,-7.0503,-7.0502,-7.0501,0,-7.0662,-7.0719,-7.0808,-7.0795,-7.0813,-7.0905,-7.0809,-7.0841,-7.0764,-7.0712,-7.0808,-7.0772,-7.0791,-7.0815,-7.0744,-7.0932,-7.0886,-7.0787,-7.0641,-7.0878,-7.0961,-7.0995,-7.0525,-7.052,-7.0516,-7.0512,0,0,-7.1095,-7.1016,-7.1051,-7.1041,-7.0998,-7.104,-7.1123,-7.1139,-7.1167,-7.1162,-7.1228,-7.1287,-7.1192,-7.1197,-7.1121,-7.1191,-7.1408,-7.1082,-7.1079,-7.1143,-7.1611,-7.1686,-7.1728,-7.1342,-7.1348,-7.1353,-7.1612,0,-7.1364,-7.15,-7.1402,-7.1554,-7.1604,-7.1455,-7.1526,-7.1508,-7.146,-7.1495,-7.1441,-7.1484,-7.1358,-7.1359,-7.1422,-7.1369,-7.1501,-7.1349,-7.1402,-7.1405,-7.1411,-7.1771,-7.1852,-7.2098,-7.1644,-7.165,-7.1654,0,-7.1699,-7.1704,-7.1861,-7.1803,-7.182,-7.1887,-7.1891,-7.1927,-7.1902,-7.1861,-7.1864,-7.1769,-7.1845,-7.1701,-7.1803,-7.1702,-7.1717,-7.1695,-7.1702,-7.1703,-7.1544,-7.1782,-7.2175,-7.2212,-7.1704,-7.17,-7.1696,0,-7.1996,-7.2043,-7.2141,-7.2138,-7.2074,-7.2123,-7.2099,-7.2066,-7.2081,-7.2085,-7.2092,-7.2107,-7.2115,-7.2128,-7.2039,-7.1942,-7.2152,-7.2001,-7.2121,-7.2123,-7.2172,-7.2171,-7.2573,-7.2184,-7.2184,-7.2183,-7.2182,0,-7.2308,-7.2409,-7.2273,-7.2334,-7.2442,-7.2327,-7.2438,-7.2398,-7.2369,-7.2419,-7.2292,-7.2342,-7.2221,-7.2258,-7.2189,-7.2283,-7.2288,-7.2258,-7.2238,-7.2269,-7.2273,-7.2278,-7.2258,-7.2192,-7.219,-7.2188,-7.2187,0,-7.2659,-7.2572,-7.2669,-7.2598,-7.2583,-7.2666,-7.2605,-7.2658,-7.26,-7.2664,-7.2673,-7.2582,-7.2619,-7.2531,-7.2556,-7.2509,-7.2643,-7.2597,-7.2652,-7.2637,-7.2761,-7.2751,-7.318,-7.323,-7.2811,-7.2815,-7.2819,0,-7.2864,-7.2937,-7.2873,-7.2896,-7.2878,-7.2917,-7.2929,-7.2819,-7.2838,-7.2812,-7.2868,-7.2893,-7.2908,-7.2973,-7.291,-7.2928,-7.288,-7.3029,-7.2882,-7.291,-7.2881,-7.2877,-7.2883,-7.306,-7.3065,-7.307,-7.3073,0,-7.3235,-7.3187,-7.3209,-7.3216,-7.3233,-7.3234,-7.3226,-7.3252,-7.3133,-7.3161,-7.3195,-7.3206,-7.3229,-7.3255,-7.3258,-7.3233,-7.3134,-7.3119,-7.3148,-7.318,-7.3208,-7.3193,-7.2734,-7.311,-7.3107,-7.3104,-7.3102,-7.31,-7.3518,-7.3575,-7.3537,-7.3565,-7.3546,-7.354,-7.3585,-7.353,-7.3556,-7.3564,-7.3497,-7.3546,-7.3515,-7.3507,-7.3492,-7.3529,-7.3461,-7.3503,-7.3513,-7.3525,-7.3545,-7.3202,-7.3529,-7.3528,-7.3527,-7.3526,-7.3525,0,-7.3882,-7.3849,-7.3875,-7.3865,-7.3887,-7.3788,-7.3772,-7.3797,-7.384,-7.3819,-7.3834,-7.3873,-7.3897,-7.3834,-7.3848,-7.3889,-7.3844,-7.3897,-7.3893,-7.3888,-7.3605,-7.3579,-7.3933,-7.3933,-7.3933,-7.3933,-7.3933,-7.3932,-7.4074,-7.4163,-7.411,-7.4189,-7.4154,-7.4199,-7.4198,-7.4191,-7.4173,-7.422,-7.4238,-7.4196,-7.4158,-7.4167,-7.4185,-7.4165,-7.4177,-7.4245,-7.4211,-7.3948,-7.3908,-7.3871,-7.3845,-7.4249,-7.4249,-7.449,-7.4492,-7.4494]}]]